アトラス彗星

C/2019 F2 ( ATLAS )

English version
Home page
Updated on June 14, 2021

---------------------------------------------------------------------

・ プロフィール

発見日 2019年3月26日
発見光度 17.5等
発見者 Asteroid Terrestrial-Impact Last Alert System (ATLAS) search program

・ 写真集

・ 軌道要素

Epoch 2019 Aug. 25.0 TT = JDT 2458720.5
T 2019 Sept. 8.90384 TT                                 Rudenko
q   2.2328561            (2000.0)            P               Q
n   0.01464910     Peri.   10.95825     -0.99215105     +0.12278139
a  16.5422819      Node   175.86752     -0.12423177     -0.98942253
e   0.8650213      Incl.   19.18905     +0.01423959     -0.07725150
P  67.3
From 605 observations 2019 Feb. 26-2020 July 20, mean residual 0".5.

・ 星図

・ 光度変化

        m1 = 8.0 + 5 logΔ + 16.0 log r(t + 30)

---------------------------------------------------------------------

軌道要素はM.P.E.C. 2020-P19に掲載されたものです。
星図はステラナビゲータ Ver.10 (アストロアーツ) で作成したものです。
光度グラフはComet for Windowsで作成したものです。

---------------------------------------------------------------------

Copyright(C) Seiichi Yoshida (comet@aerith.net). All rights reserved.